28/2/2024;10:00;41259;0;0;21;16; 
28/2/2024;11:00;28879;0;3088;20;16; 
28/2/2024;12:00;30587;0;0;20;16; 
28/2/2024;13:00;14855;0;0;20;16; 
28/2/2024;14:00;16158;0;0;20;17; 
28/2/2024;15:00;21697;5146;7894;20;17; 
28/2/2024;16:00;17549;0;0;20;17; 
28/2/2024;17:00;6743;0;0;20;17; 
28/2/2024;18:00;2227;0;0;20;17; 
28/2/2024;19:00;651;0;0;20;17; 
28/2/2024;20:00;507;0;0;20;17; 
28/2/2024;21:00;494;0;0;20;17; 
28/2/2024;22:00;706;0;0;20;17; 
28/2/2024;23:00;511;0;0;19;16; 
29/2/2024;0:00;504;0;0;19;16; 
29/2/2024;1:00;509;0;0;19;16; 
29/2/2024;2:00;532;0;0;19;16; 
29/2/2024;3:00;651;0;0;19;16; 
29/2/2024;4:00;485;0;0;19;16; 
29/2/2024;5:00;992;0;0;19;15; 
29/2/2024;6:00;887;0;0;20;15; 
29/2/2024;7:00;1013;0;0;20;15; 
29/2/2024;8:00;1134;0;0;20;16; 
29/2/2024;9:00;10287;0;0;21;16; 
29/2/2024;10:00;7495;4173;5341;20;16; 
29/2/2024;11:00;14976;0;4916;20;17; 
29/2/2024;12:00;13130;6436;9990;20;17; 
29/2/2024;13:00;36573;6240;9486;20;18; 
29/2/2024;14:00;20652;5082;8288;20;18; 
29/2/2024;15:00;24738;4377;6492;20;18; 
29/2/2024;16:00;10396;0;3088;20;18; 
29/2/2024;17:00;5694;0;0;20;18; 
29/2/2024;18:00;2243;0;0;20;17; 
29/2/2024;19:00;525;0;0;20;17; 
29/2/2024;20:00;560;0;0;20;17; 
29/2/2024;21:00;634;0;0;20;17; 
29/2/2024;22:00;563;0;0;20;17; 
29/2/2024;23:00;628;0;0;20;16; 
1/3/2024;0:00;652;0;0;19;16; 
1/3/2024;1:00;639;0;0;20;16; 
1/3/2024;2:00;590;0;0;19;16; 
1/3/2024;3:00;580;0;0;19;16; 
1/3/2024;4:00;521;0;0;19;16; 
1/3/2024;5:00;1061;0;0;19;16; 
1/3/2024;6:00;914;0;0;20;16; 
1/3/2024;7:00;1056;0;0;20;16; 
1/3/2024;8:00;945;0;0;21;16; 
1/3/2024;9:00;8328;0;0;21;16; 
1/3/2024;10:00;7276;0;0;20;17; 
1/3/2024;11:00;11530;0;0;20;17; 
1/3/2024;12:00;22314;0;0;20;17; 
1/3/2024;13:00;40023;0;4868;20;17; 
1/3/2024;14:00;27515;10733;16123;20;18; 
1/3/2024;15:00;21756;9680;14893;20;19; 
1/3/2024;16:00;23210;0;0;20;19; 
1/3/2024;17:00;15220;0;0;20;18; 
1/3/2024;18:00;3460;0;0;20;18; 
1/3/2024;19:00;914;0;0;20;17; 
1/3/2024;20:00;719;0;0;20;17; 
1/3/2024;21:00;786;0;0;20;17; 
1/3/2024;22:00;710;0;0;20;17; 
1/3/2024;23:00;686;0;0;20;16; 
2/3/2024;0:00;857;0;0;19;16; 
3/3/2024;1:00;754;0;0;19;16; 
3/3/2024;2:00;695;0;0;19;16; 
3/3/2024;3:00;699;0;0;19;16; 
3/3/2024;4:00;695;0;0;19;16; 
3/3/2024;5:00;801;0;0;19;16; 
3/3/2024;6:00;829;0;0;19;16; 
3/3/2024;7:00;781;0;0;19;16; 
3/3/2024;8:00;823;0;0;19;16; 
3/3/2024;9:00;787;0;0;19;16; 
3/3/2024;10:00;1002;0;0;19;17; 
3/3/2024;11:00;868;0;0;19;17; 
3/3/2024;12:00;825;0;0;19;20; 
3/3/2024;13:00;933;0;0;19;20; 
3/3/2024;14:00;759;0;0;19;20; 
3/3/2024;15:00;704;0;0;19;20; 
3/3/2024;16:00;745;0;0;20;22; 
3/3/2024;17:00;689;0;0;20;23; 
3/3/2024;18:00;784;0;0;20;20; 
3/3/2024;19:00;683;0;0;20;18; 
3/3/2024;20:00;770;0;0;20;17; 
3/3/2024;21:00;895;0;0;19;17; 
3/3/2024;22:00;746;0;0;19;16; 
3/3/2024;23:00;720;0;0;19;15; 
3/3/2024;0:00;694;0;0;19;15; 
3/3/2024;1:00;808;0;0;19;15; 
3/3/2024;2:00;891;0;0;19;14; 
3/3/2024;3:00;779;0;0;19;14; 
3/3/2024;4:00;717;0;0;19;14; 
3/3/2024;5:00;755;0;0;19;13; 
3/3/2024;6:00;752;0;0;19;13; 
3/3/2024;7:00;793;0;0;19;13; 
3/3/2024;8:00;678;0;0;19;13; 
3/3/2024;9:00;706;0;0;19;13; 
3/3/2024;10:00;868;0;0;19;14; 
3/3/2024;11:00;819;0;0;19;15; 
3/3/2024;12:00;944;0;0;19;17; 
3/3/2024;13:00;747;0;0;19;18; 
3/3/2024;14:00;716;0;0;19;20; 
3/3/2024;15:00;727;0;0;19;19; 
3/3/2024;16:00;673;0;0;19;18; 
3/3/2024;17:00;793;0;0;19;18; 
3/3/2024;18:00;696;0;0;19;17; 
3/3/2024;19:00;744;0;0;19;17; 
3/3/2024;20:00;1787;0;0;19;16; 
3/3/2024;21:00;732;0;0;19;16; 
3/3/2024;22:00;854;0;0;19;16; 
3/3/2024;23:00;743;0;0;19;15; 
4/3/2024;0:00;722;0;0;19;15; 
4/3/2024;1:00;754;0;0;19;14; 
4/3/2024;2:00;1460;0;0;19;14; 
4/3/2024;3:00;1455;0;0;19;14; 
4/3/2024;4:00;1205;0;0;19;14; 
4/3/2024;5:00;1235;0;0;20;14; 
4/3/2024;6:00;1227;0;0;20;13; 
4/3/2024;7:00;1263;0;0;20;14; 
4/3/2024;8:00;1309;0;0;20;14; 
4/3/2024;9:00;4516;0;4901;20;14; 
4/3/2024;10:00;14945;0;0;20;15; 
4/3/2024;11:00;15331;4538;6743;20;15; 
4/3/2024;12:00;22359;0;0;20;15; 
4/3/2024;13:00;41991;3727;5057;20;15; 
4/3/2024;14:00;26309;0;0;20;15; 
4/3/2024;15:00;26438;7751;11662;20;16; 
4/3/2024;16:00;25123;0;0;20;17; 
4/3/2024;17:00;10511;0;0;20;17; 
4/3/2024;18:00;2061;0;0;20;17; 
4/3/2024;19:00;561;0;0;20;16; 
4/3/2024;20:00;481;0;0;20;16; 
4/3/2024;21:00;428;0;0;20;16; 
4/3/2024;22:00;449;0;0;20;16; 
4/3/2024;23:00;441;0;0;19;15; 
5/3/2024;0:00;565;0;0;19;15; 
5/3/2024;1:00;461;0;0;19;14; 
5/3/2024;2:00;1522;0;0;19;14; 
5/3/2024;3:00;387;0;0;19;14; 
5/3/2024;4:00;408;0;0;19;13; 
5/3/2024;5:00;1126;0;0;19;13; 
5/3/2024;6:00;1011;0;0;19;13; 
5/3/2024;7:00;973;0;0;20;13; 
5/3/2024;8:00;2206;0;0;20;13; 
5/3/2024;9:00;7715;8488;12514;20;15; 
5/3/2024;10:00;12096;10818;14987;20;19; 
5/3/2024;11:00;34353;19741;32231;20;23; 
5/3/2024;12:00;23291;23153;38724;21;27; 
5/3/2024;13:00;21875;16817;27407;21;30; 
5/3/2024;14:00;17563;8511;13805;21;28; 
5/3/2024;15:00;24442;6973;10795;21;24; 
5/3/2024;16:00;29210;0;0;21;23; 
5/3/2024;17:00;8645;0;0;21;21; 
5/3/2024;18:00;882;0;0;21;21; 
5/3/2024;19:00;510;0;0;21;20; 
5/3/2024;20:00;621;0;0;20;18; 
5/3/2024;21:00;852;0;0;20;17; 
5/3/2024;22:00;1319;0;0;20;16; 
5/3/2024;23:00;1457;0;0;20;15; 
6/3/2024;0:00;463;0;0;20;15; 
6/3/2024;1:00;375;0;0;20;15; 
6/3/2024;2:00;524;0;0;20;15; 
6/3/2024;3:00;441;0;0;20;14; 
6/3/2024;4:00;436;0;0;20;13; 
6/3/2024;5:00;1887;0;0;20;13; 
6/3/2024;6:00;807;0;0;20;12; 
6/3/2024;7:00;776;0;0;20;12; 
6/3/2024;8:00;1004;0;0;20;12; 
6/3/2024;9:00;20488;1235;7012;20;15; 
6/3/2024;10:00;29822;15275;28999;20;18; 
6/3/2024;11:00;28049;12177;16137;20;22; 
6/3/2024;12:00;20228;19327;35100;21;26; 
6/3/2024;13:00;31121;17142;24525;21;28; 
6/3/2024;14:00;30066;22117;35873;21;30; 
6/3/2024;15:00;39893;0;2127;22;31; 
6/3/2024;16:00;22524;0;0;21;24; 
6/3/2024;17:00;20965;0;0;21;21; 
6/3/2024;18:00;3406;0;0;21;19; 
6/3/2024;19:00;425;0;0;21;17; 
6/3/2024;20:00;426;0;0;20;16; 
6/3/2024;21:00;756;0;0;20;15; 
6/3/2024;22:00;925;0;0;20;14; 
6/3/2024;23:00;808;0;0;20;14; 
6/3/2024;23:59;565;0;0;20;14; 
7/3/2024;0:01;519;0;0;20;14; 
7/3/2024;1:00;415;0;0;20;14; 
7/3/2024;2:00;375;0;0;20;14; 
7/3/2024;3:00;441;0;0;20;14; 
7/3/2024;4:00;449;0;0;20;14; 
7/3/2024;5:00;860;0;0;20;14; 
7/3/2024;6:00;769;0;0;20;14; 
7/3/2024;7:00;899;0;0;20;14; 
7/3/2024;8:00;1203;0;0;20;13; 
7/3/2024;9:00;12664;10858;18249;20;16; 
7/3/2024;10:00;26939;16837;28195;20;20; 
7/3/2024;11:00;17304;9774;17257;20;21; 
7/3/2024;12:00;26204;22086;40269;20;26; 
7/3/2024;13:00;46429;25685;43469;21;27; 
7/3/2024;14:00;30014;11399;18628;21;25; 
7/3/2024;15:00;28469;19560;36297;21;26; 
7/3/2024;16:00;24295;12350;19762;21;25; 
7/3/2024;17:00;11416;3881;6681;21;24; 
7/3/2024;18:00;3618;0;0;21;22; 
7/3/2024;19:00;424;0;0;21;19; 
7/3/2024;20:00;437;0;0;21;18; 
7/3/2024;21:00;527;0;0;21;16; 
7/3/2024;22:00;402;0;0;20;16; 
7/3/2024;23:00;450;0;0;20;15; 
8/3/2024;0:00;399;0;0;20;14; 
8/3/2024;1:00;401;0;0;20;13; 
8/3/2024;2:00;494;0;0;20;13; 
8/3/2024;3:00;448;0;0;20;12; 
8/3/2024;4:00;450;0;0;20;12; 
8/3/2024;5:00;858;0;0;19;11; 
8/3/2024;6:00;778;0;0;20;11; 
8/3/2024;7:00;678;0;0;20;11; 
8/3/2024;8:00;1076;0;0;20;11; 
8/3/2024;9:00;11188;2370;8840;19;13; 
8/3/2024;10:00;39492;8343;17793;19;15; 
8/3/2024;11:00;26245;10765;23057;21;20; 
8/3/2024;12:00;30374;14465;23482;21;24; 
8/3/2024;13:00;33652;8098;12765;21;23; 
8/3/2024;14:00;28498;6152;9471;21;21; 
8/3/2024;15:00;23472;1342;7295;21;20; 
8/3/2024;16:00;25271;0;0;21;19; 
8/3/2024;17:00;29322;0;0;21;18; 
8/3/2024;18:00;3523;0;0;20;17; 
8/3/2024;19:00;477;0;0;20;16; 
8/3/2024;20:00;570;0;0;20;15; 
8/3/2024;21:00;450;0;0;20;15; 
8/3/2024;22:00;539;0;0;20;14; 
8/3/2024;23:00;343;0;0;20;14; 
9/3/2024;0:00;343;0;0;20;14; 
9/3/2024;1:00;433;0;0;20;14; 
9/3/2024;2:00;345;0;0;20;14; 
9/3/2024;3:00;394;0;0;19;14; 
9/3/2024;4:00;453;0;0;19;14; 
9/3/2024;5:00;336;0;0;19;14; 
9/3/2024;6:00;373;0;0;19;14; 
9/3/2024;7:00;378;0;0;19;14; 
9/3/2024;8:00;384;0;0;19;14; 
9/3/2024;9:00;519;0;0;19;14; 
9/3/2024;10:00;380;0;0;19;15; 
9/3/2024;11:00;394;0;0;19;16; 
9/3/2024;12:00;596;0;0;19;17; 
9/3/2024;13:00;420;0;0;19;17; 
9/3/2024;14:00;608;0;0;19;18; 
9/3/2024;15:00;464;0;0;19;17; 
9/3/2024;16:00;533;0;0;19;17; 
9/3/2024;17:00;616;0;0;19;17; 
9/3/2024;18:00;432;0;0;19;17; 
9/3/2024;19:00;547;0;0;19;16; 
9/3/2024;20:00;456;0;0;19;16; 
9/3/2024;21:00;504;0;0;19;16; 
9/3/2024;22:00;513;0;0;19;16; 
9/3/2024;23:00;458;0;0;19;15; 
10/3/2024;0:00;594;0;0;19;15; 
10/3/2024;1:00;333;0;0;19;15; 
10/3/2024;2:00;498;0;0;19;15; 
10/3/2024;3:00;330;0;0;19;15; 
10/3/2024;4:00;432;0;0;19;15; 
10/3/2024;5:00;490;0;0;19;15; 
10/3/2024;6:00;398;0;0;19;15; 
10/3/2024;7:00;522;0;0;19;15; 
10/3/2024;8:00;399;0;0;18;15; 
10/3/2024;9:00;351;0;0;19;15; 
10/3/2024;10:00;360;0;0;18;16; 
10/3/2024;11:00;421;0;0;18;17; 
10/3/2024;12:00;471;0;0;19;18; 
10/3/2024;13:00;326;0;0;19;18; 
10/3/2024;14:00;456;0;0;19;16; 
10/3/2024;15:00;434;0;0;19;16; 
10/3/2024;16:00;354;0;0;19;20; 
10/3/2024;17:00;529;0;0;19;24; 
10/3/2024;18:00;474;0;0;20;22; 
10/3/2024;19:00;719;0;0;20;19; 
10/3/2024;20:00;564;0;0;19;17; 
10/3/2024;21:00;461;0;0;19;15; 
10/3/2024;22:00;488;0;0;19;14; 
10/3/2024;23:00;506;0;0;19;13; 
11/3/2024;0:00;480;0;0;19;13; 
11/3/2024;1:00;389;0;0;19;12; 
11/3/2024;2:00;1062;0;0;19;12; 
11/3/2024;3:00;1064;0;0;19;11; 
11/3/2024;4:00;949;0;0;19;11; 
11/3/2024;5:00;884;0;0;20;11; 
11/3/2024;6:00;927;0;0;20;11; 
11/3/2024;7:00;1071;0;0;20;10; 
11/3/2024;8:00;905;0;0;20;10; 
11/3/2024;9:00;8395;9299;19953;20;13; 
11/3/2024;10:00;13359;12898;24933;20;18; 
11/3/2024;11:00;22892;16538;24933;20;22; 
11/3/2024;12:00;28168;24635;37905;21;27; 
11/3/2024;13:00;30514;22966;38409;21;30; 
11/3/2024;14:00;17662;17819;28180;21;30; 
11/3/2024;15:00;17510;19403;33335;21;30; 
11/3/2024;16:00;29845;13417;21670;21;29; 
11/3/2024;17:00;15005;0;0;21;26; 
11/3/2024;18:00;3267;0;0;21;21; 
11/3/2024;19:00;506;0;0;21;19; 
11/3/2024;20:00;459;0;0;20;18; 
11/3/2024;21:00;411;0;0;20;17; 
11/3/2024;22:00;489;0;0;20;17; 
11/3/2024;23:00;402;0;0;20;16; 
12/3/2024;0:00;456;0;0;20;15; 
12/3/2024;1:00;629;0;0;20;14; 
12/3/2024;2:00;518;0;0;20;14; 
12/3/2024;3:00;597;0;0;19;13; 
12/3/2024;4:00;544;0;0;19;13; 
12/3/2024;5:00;852;0;0;19;13; 
12/3/2024;6:00;844;0;0;20;13; 
12/3/2024;7:00;822;0;0;20;12; 
12/3/2024;8:00;881;0;0;20;13; 
12/3/2024;9:00;17000;11159;21828;20;16; 
12/3/2024;10:00;14363;14337;27361;20;20; 
12/3/2024;11:00;40126;21254;40033;20;24; 
12/3/2024;12:00;26193;26441;38662;21;28; 
12/3/2024;13:00;21070;17425;26730;21;29; 
12/3/2024;14:00;24251;16899;27187;22;31; 
12/3/2024;15:00;28678;16680;32436;22;33; 
12/3/2024;16:00;25842;14126;23278;22;33; 
12/3/2024;17:00;4080;4181;6414;22;31; 
12/3/2024;18:00;3357;0;0;22;27; 
12/3/2024;19:00;646;0;0;22;23; 
12/3/2024;20:00;539;0;0;21;20; 
12/3/2024;21:00;1188;0;0;21;18; 
12/3/2024;22:00;1096;0;0;21;17; 
12/3/2024;23:00;1009;0;0;20;16; 
13/3/2024;0:00;402;0;0;20;15; 
13/3/2024;1:00;404;0;0;20;15; 
13/3/2024;2:00;464;0;0;20;15; 
13/3/2024;3:00;407;0;0;20;15; 
13/3/2024;4:00;492;0;0;20;14; 
13/3/2024;5:00;764;0;0;20;14; 
13/3/2024;6:00;810;0;0;19;13; 
13/3/2024;7:00;2041;0;0;20;13; 
13/3/2024;8:00;657;0;0;20;14; 
13/3/2024;9:00;29280;3587;10685;20;15; 
13/3/2024;10:00;21865;6106;14593;20;17; 
13/3/2024;11:00;33857;8295;15508;21;18; 
13/3/2024;12:00;31227;12274;18912;20;20; 
13/3/2024;13:00;36864;14219;21308;20;21; 
13/3/2024;14:00;32773;19563;25674;21;26; 
13/3/2024;15:00;26739;15999;32468;21;31; 
13/3/2024;16:00;21746;11509;16186;22;31; 
13/3/2024;17:00;4899;4445;7815;22;29; 
13/3/2024;18:00;3520;0;0;22;26; 
13/3/2024;19:00;408;0;0;21;21; 
13/3/2024;20:00;384;0;0;21;19; 
13/3/2024;21:00;481;0;0;21;17; 
13/3/2024;22:00;1241;0;0;20;16; 
13/3/2024;23:00;484;0;0;20;15; 
14/3/2024;0:00;524;0;0;20;14; 
14/3/2024;1:00;485;0;0;20;14; 
14/3/2024;2:00;469;0;0;20;13; 
14/3/2024;3:00;392;0;0;19;13; 
14/3/2024;4:00;371;0;0;19;12; 
14/3/2024;5:00;767;0;0;19;12; 
14/3/2024;6:00;768;0;0;20;12; 
14/3/2024;7:00;923;0;0;20;11; 
14/3/2024;8:00;664;0;0;20;13; 
14/3/2024;9:00;18316;11806;18171;20;15; 
14/3/2024;10:00;21596;19336;30039;20;20; 
14/3/2024;11:00;30088;19705;25357;20;24; 
14/3/2024;12:00;23718;15840;32720;21;28; 
14/3/2024;13:00;37979;18403;29535;21;30; 
14/3/2024;14:00;27527;23037;34627;22;32; 
14/3/2024;15:00;26270;15915;32372;22;34; 
14/3/2024;16:00;39926;7783;18864;22;33; 
14/3/2024;17:00;20679;969;7673;22;31; 
14/3/2024;18:00;3265;0;0;22;26; 
14/3/2024;19:00;386;0;0;22;23; 
14/3/2024;20:00;536;0;0;21;21; 
14/3/2024;21:00;744;0;0;21;19; 
14/3/2024;22:00;414;0;0;21;18; 
14/3/2024;23:00;390;0;0;21;17; 
15/3/2024;0:00;488;0;0;21;16; 
15/3/2024;1:00;392;0;0;20;15; 
15/3/2024;2:00;407;0;0;20;15; 
15/3/2024;3:00;616;0;0;20;14; 
15/3/2024;4:00;558;0;0;20;14; 
15/3/2024;5:00;913;0;0;20;13; 
15/3/2024;6:00;814;0;0;20;13; 
15/3/2024;7:00;818;0;0;20;13; 
15/3/2024;8:00;685;0;0;20;14; 
15/3/2024;9:00;12798;11620;17194;20;16; 
15/3/2024;10:00;27184;17674;27817;20;20; 
15/3/2024;11:00;22353;16362;25721;20;24; 
15/3/2024;12:00;25971;15893;30308;21;25; 
15/3/2024;13:00;17484;15945;27486;21;27; 
15/3/2024;14:00;21674;16538;25848;21;29; 
15/3/2024;15:00;23776;16441;24854;21;29; 
15/3/2024;16:00;23168;10919;17808;21;27; 
15/3/2024;17:00;10731;0;0;21;24; 
15/3/2024;18:00;3281;0;0;21;23; 
15/3/2024;19:00;385;0;0;21;21; 
15/3/2024;20:00;655;0;0;21;21; 
15/3/2024;21:00;643;0;0;21;20; 
15/3/2024;22:00;474;0;0;20;19; 
15/3/2024;23:00;558;0;0;20;19; 
16/3/2024;0:00;393;0;0;20;18; 
16/3/2024;1:00;411;0;0;20;18; 
16/3/2024;2:00;635;0;0;20;18; 
16/3/2024;3:00;434;0;0;20;17; 
16/3/2024;4:00;373;0;0;20;17; 
16/3/2024;5:00;490;0;0;20;16; 
16/3/2024;6:00;521;0;0;20;15; 
16/3/2024;7:00;477;0;0;20;16; 
16/3/2024;8:00;535;0;0;20;16; 
16/3/2024;9:00;367;0;0;20;17; 
16/3/2024;10:00;446;0;0;20;19; 
16/3/2024;11:00;522;0;0;20;21; 
16/3/2024;12:00;501;0;0;21;25; 
16/3/2024;13:00;599;0;0;21;28; 
16/3/2024;14:00;604;0;0;22;30; 
16/3/2024;15:00;480;0;0;22;30; 
16/3/2024;16:00;630;0;0;22;31; 
16/3/2024;17:00;489;0;0;22;30; 
16/3/2024;18:00;389;0;0;22;27; 
16/3/2024;19:00;450;0;0;22;24; 
16/3/2024;20:00;535;0;0;21;22; 
16/3/2024;21:00;441;0;0;21;20; 
16/3/2024;22:00;367;0;0;21;19; 
16/3/2024;23:00;413;0;0;21;18; 
17/3/2024;0:00;486;0;0;21;17; 
17/3/2024;1:00;1513;0;0;21;16; 
17/3/2024;2:00;428;0;0;21;16; 
17/3/2024;3:00;619;0;0;21;15; 
17/3/2024;4:00;490;0;0;20;15; 
17/3/2024;5:00;515;0;0;20;15; 
17/3/2024;6:00;587;0;0;20;15; 
17/3/2024;7:00;560;0;0;20;15; 
17/3/2024;8:00;586;0;0;20;15; 
17/3/2024;9:00;629;0;0;20;18; 
17/3/2024;10:00;521;0;0;21;21; 
17/3/2024;11:00;365;0;0;21;24; 
17/3/2024;12:00;540;0;0;21;26; 
17/3/2024;13:00;438;0;0;21;27; 
17/3/2024;14:00;1512;0;0;21;28; 
17/3/2024;15:00;545;0;0;21;28; 
17/3/2024;16:00;386;0;0;21;26; 
17/3/2024;17:00;399;0;0;21;26; 
17/3/2024;18:00;541;0;0;21;24; 
17/3/2024;19:00;422;0;0;21;22; 
17/3/2024;20:00;461;0;0;21;21; 
17/3/2024;21:00;490;0;0;21;20; 
17/3/2024;22:00;367;0;0;21;19; 
17/3/2024;23:00;440;0;0;21;18; 
17/3/2024;14:46;482;0;0;21;18; 
17/3/2024;15:00;482;0;0;21;18; 
17/3/2024;16:00;1127;0;0;21;17; 
17/3/2024;17:00;918;0;0;20;17; 
17/3/2024;18:00;858;0;0;20;17; 
17/3/2024;19:00;931;0;0;20;17; 
17/3/2024;20:00;746;0;0;20;16; 
17/3/2024;21:00;637;0;0;20;16; 
17/3/2024;22:00;1034;0;0;20;16; 
17/3/2024;23:00;1201;0;0;20;17; 
18/3/2024;9:14;21506;6556;10306;20;18; 
18/3/2024;10:00;48773;10609;18612;20;20; 
18/3/2024;11:00;30050;12842;22773;21;21; 
18/3/2024;12:00;24732;11078;20393;21;24; 
18/3/2024;13:00;22492;7961;12608;21;24; 
18/3/2024;14:00;14344;5983;9675;21;23; 
18/3/2024;15:00;29350;4704;7327;21;22; 
18/3/2024;16:00;32127;0;0;21;22; 
18/3/2024;17:00;19628;0;0;21;21; 
18/3/2024;18:00;3501;0;0;21;21; 
18/3/2024;19:00;383;0;0;21;20; 
18/3/2024;20:00;543;0;0;21;20; 
18/3/2024;21:00;658;0;0;20;19; 
18/3/2024;22:00;559;0;0;21;19; 
18/3/2024;23:00;368;0;0;20;18; 
18/3/2024;0:00;586;0;0;20;18; 
18/3/2024;1:00;372;0;0;20;18; 
18/3/2024;2:00;399;0;0;21;18; 
18/3/2024;3:00;535;0;0;20;18; 
18/3/2024;4:00;394;0;0;20;17; 
18/3/2024;5:00;760;0;0;20;17; 
18/3/2024;6:00;746;0;0;20;17; 
18/3/2024;7:00;807;0;0;20;16; 
18/3/2024;8:00;976;0;0;20;17; 
18/3/2024;9:00;19059;0;0;20;17; 
18/3/2024;10:00;28515;2941;6601;20;17; 
18/3/2024;11:00;30747;4291;8855;20;18; 
18/3/2024;12:00;38656;6053;11662;20;19; 
18/3/2024;13:00;23719;12628;20283;21;20; 
18/3/2024;14:00;26320;24828;39860;21;24; 
18/3/2024;15:00;30161;18017;32324;21;30; 
18/3/2024;16:00;27390;12903;23357;22;31; 
18/3/2024;17:00;6877;3205;7753;22;29; 
18/3/2024;18:00;3427;0;0;21;25; 
18/3/2024;19:00;530;0;0;21;22; 
18/3/2024;20:00;490;0;0;21;20; 
18/3/2024;21:00;813;0;0;21;19; 
18/3/2024;22:00;1971;0;0;21;18; 
18/3/2024;23:00;421;0;0;21;17; 
20/3/2024;0:00;441;0;0;21;16; 
20/3/2024;1:00;538;0;0;20;15; 
20/3/2024;2:00;413;0;0;20;15; 
20/3/2024;3:00;412;0;0;20;15; 
20/3/2024;4:00;618;0;0;20;16; 
20/3/2024;5:00;878;0;0;20;16; 
20/3/2024;6:00;731;0;0;20;16; 
20/3/2024;7:00;874;0;0;20;16; 
20/3/2024;8:00;1085;0;0;20;16; 
20/3/2024;9:00;17725;638;5373;20;16; 
20/3/2024;10:00;18632;5110;13158;20;18; 
20/3/2024;11:00;27587;5662;13931;20;19; 
20/3/2024;12:00;15832;10453;21766;20;21; 
20/3/2024;13:00;20629;18985;27218;21;23; 
20/3/2024;14:00;20898;14052;18297;21;24; 
20/3/2024;15:00;39587;15857;28716;21;26; 
20/3/2024;16:00;25157;13467;21623;21;27; 
20/3/2024;17:00;10845;4388;6886;22;26; 
20/3/2024;18:00;2123;0;0;22;23; 
20/3/2024;19:00;529;0;0;21;21; 
20/3/2024;20:00;406;0;0;21;19; 
20/3/2024;21:00;442;0;0;21;18; 
20/3/2024;22:00;568;0;0;21;17; 
20/3/2024;23:00;397;0;0;21;16; 
21/3/2024;0:00;369;0;0;21;16; 
21/3/2024;1:00;462;0;0;20;15; 
21/3/2024;2:00;536;0;0;20;15; 
21/3/2024;3:00;555;0;0;20;14; 
21/3/2024;4:00;543;0;0;20;14; 
21/3/2024;5:00;796;0;0;20;14; 
21/3/2024;6:00;765;0;0;20;14; 
21/3/2024;7:00;920;0;0;20;14; 
21/3/2024;8:00;827;0;0;20;15; 
21/3/2024;9:00;15331;11965;23656;20;18; 
21/3/2024;10:00;16724;16599;32545;20;23; 
21/3/2024;11:00;14688;14978;23656;21;27; 
21/3/2024;12:00;10873;12235;24397;21;29; 
21/3/2024;13:00;13744;12680;20535;22;31; 
21/3/2024;14:00;11842;12416;18880;22;33; 
21/3/2024;15:00;26039;14505;32814;22;34; 
21/3/2024;16:00;18768;10538;19779;22;34; 
21/3/2024;17:00;6192;0;0;22;29; 
21/3/2024;18:00;3353;0;0;22;26; 
21/3/2024;19:00;413;0;0;22;24; 
21/3/2024;20:00;541;0;0;21;22; 
21/3/2024;21:00;431;0;0;21;21; 
21/3/2024;22:00;452;0;0;21;21; 
21/3/2024;23:00;477;0;0;21;20; 
22/3/2024;0:00;443;0;0;21;19; 
22/3/2024;1:00;493;0;0;21;18; 
22/3/2024;2:00;677;0;0;21;17; 
22/3/2024;3:00;555;0;0;21;17; 
22/3/2024;4:00;447;0;0;20;16; 
22/3/2024;5:00;760;0;0;20;15; 
22/3/2024;6:00;738;0;0;20;15; 
22/3/2024;7:00;814;0;0;20;15; 
22/3/2024;8:00;1059;0;0;20;15; 
22/3/2024;9:00;5151;5204;6571;20;18; 
22/3/2024;10:00;9308;7712;14042;21;22; 
22/3/2024;11:00;6292;6476;19511;21;25; 
22/3/2024;12:00;10588;11050;16767;21;28; 
22/3/2024;13:00;13039;13647;19590;22;30; 
22/3/2024;14:00;12080;11511;17587;22;32; 
22/3/2024;15:00;27481;14000;31032;22;34; 
22/3/2024;16:00;22918;10630;18455;22;34; 
22/3/2024;17:00;8481;4084;14829;22;31; 
22/3/2024;18:00;3165;1225;14829;22;31; 
22/3/2024;19:00;423;65486;14829;22;31; 
22/3/2024;20:00;534;65525;14829;22;31; 
22/3/2024;21:00;436;65524;14829;21;31; 
22/3/2024;22:00;441;65524;14829;21;31; 
22/3/2024;23:00;463;65525;14829;21;31; 
23/3/2024;0:00;441;65525;14829;21;31; 
23/3/2024;1:00;366;65525;14829;21;31; 
23/3/2024;2:00;524;65524;14829;21;31; 
23/3/2024;3:00;555;65525;14829;21;31; 
23/3/2024;4:00;580;65525;14829;21;31; 
23/3/2024;5:00;508;65524;14829;21;31; 
23/3/2024;6:00;502;65525;14829;20;31; 
23/3/2024;7:00;405;240;14829;20;31; 
23/3/2024;8:00;405;415;14829;21;31; 
23/3/2024;9:00;567;430;14829;21;31; 
23/3/2024;10:00;503;103;14829;21;31; 
23/3/2024;11:00;368;221;14829;21;31; 
23/3/2024;12:00;556;218;14829;21;31; 
23/3/2024;13:00;374;179;14829;22;31; 
23/3/2024;14:00;380;340;14829;22;31; 
23/3/2024;15:00;525;19;14829;22;31; 
23/3/2024;16:00;422;65524;14829;23;31; 
23/3/2024;17:00;365;276;14829;23;31; 
23/3/2024;18:00;615;379;14829;23;31; 
23/3/2024;19:00;511;65485;14829;22;31; 
23/3/2024;20:00;477;65524;14829;22;31; 
23/3/2024;21:00;421;65524;14829;22;31; 
23/3/2024;22:00;561;65525;14829;22;31; 
23/3/2024;23:00;495;65525;14829;21;31; 
24/3/2024;1:00;408;65525;14829;21;31; 
24/3/2024;2:00;495;65525;14829;21;31; 
24/3/2024;3:00;407;65525;14829;21;31; 
24/3/2024;4:00;374;65525;14829;21;31; 
24/3/2024;5:00;520;65525;14829;21;31; 
24/3/2024;6:00;454;65524;14829;21;31; 
24/3/2024;7:00;408;65524;14829;21;31; 
24/3/2024;8:00;620;163;14829;21;31; 
24/3/2024;9:00;480;145;14829;21;31; 
24/3/2024;10:00;494;164;14829;21;31; 
24/3/2024;11:00;644;440;14829;21;31; 
24/3/2024;12:00;595;434;14829;21;31; 
24/3/2024;13:00;593;191;14829;21;31; 
24/3/2024;14:00;463;270;14829;22;31; 
24/3/2024;15:00;367;146;14829;22;31; 
24/3/2024;16:00;385;234;14829;22;31; 
24/3/2024;17:00;482;469;14829;23;31; 
24/3/2024;18:00;440;65509;14829;23;31; 
24/3/2024;19:00;438;274;14829;23;31; 
24/3/2024;20:00;389;65485;14829;22;31; 
24/3/2024;21:00;822;65525;14829;22;31; 
24/3/2024;22:00;401;65525;14829;22;31; 
24/3/2024;23:00;496;65525;14829;22;31; 
25/3/2024;1:00;669;65525;14829;21;31; 
25/3/2024;2:00;576;65525;14829;21;31; 
25/3/2024;3:00;507;65524;14829;21;31; 
25/3/2024;4:00;721;65525;14829;21;31; 
25/3/2024;5:00;821;65524;14829;21;31; 
25/3/2024;6:00;659;65525;14829;21;31; 
25/3/2024;7:00;861;65525;14829;21;31; 
25/3/2024;8:00;803;65525;14829;21;31; 
25/3/2024;9:00;768;654;14829;21;31; 
25/3/2024;10:00;865;508;14829;21;31; 
25/3/2024;11:00;18686;16733;14829;21;31; 
25/3/2024;12:00;21448;19069;14829;21;31; 
25/3/2024;13:00;12383;6953;14829;21;31; 
25/3/2024;14:00;12969;7007;14829;21;31; 
25/3/2024;15:00;13977;12586;14829;22;31; 
25/3/2024;16:00;17090;10768;14829;22;31; 
25/3/2024;17:00;20601;5381;14026;22;27; 
25/3/2024;18:01;20116;9223;20330;22;26; 
25/3/2024;19:00;13987;922;7106;22;25; 
25/3/2024;20:00;3400;0;0;22;22; 
25/3/2024;21:00;556;0;0;21;21; 
25/3/2024;22:00;469;0;0;21;19; 
25/3/2024;23:00;442;0;0;21;18; 
25/3/2024;0:00;503;0;0;21;17; 
26/3/2024;1:00;374;0;0;21;17; 
26/3/2024;2:00;410;0;0;21;16; 
26/3/2024;3:00;492;0;0;21;15; 
26/3/2024;4:00;423;0;0;21;15; 
26/3/2024;5:00;454;0;0;21;14; 
26/3/2024;6:00;474;0;0;21;14; 
26/3/2024;7:00;979;0;0;20;15; 
26/3/2024;8:00;703;0;0;21;15; 
26/3/2024;9:00;1043;0;0;20;15; 
26/3/2024;10:00;1074;0;0;20;15; 
26/3/2024;11:00;16470;0;0;20;16; 
26/3/2024;12:00;21872;6661;9897;21;16; 
26/3/2024;13:00;33066;0;4207;21;16; 
26/3/2024;14:00;34970;6105;9281;21;16; 
26/3/2024;15:00;28383;0;0;21;16; 
26/3/2024;16:00;16118;3959;5009;21;16; 
26/3/2024;17:00;27227;0;0;21;17; 
26/3/2024;18:00;23543;0;0;21;17; 
26/3/2024;19:00;13152;0;0;21;16; 
26/3/2024;20:00;3271;0;0;20;16; 
26/3/2024;21:00;526;0;0;20;16; 
26/3/2024;22:00;554;0;0;20;16; 
26/3/2024;23:00;937;0;0;20;15; 
26/3/2024;0:00;1074;0;0;20;15; 
27/3/2024;1:00;882;0;0;20;15; 
27/3/2024;2:00;374;0;0;20;15; 
27/3/2024;3:00;425;0;0;20;15; 
27/3/2024;4:00;426;0;0;20;15; 
27/3/2024;5:00;500;0;0;20;15; 
27/3/2024;6:00;410;0;0;20;15; 
27/3/2024;7:00;823;0;0;20;15; 
27/3/2024;8:00;927;0;0;20;15; 
27/3/2024;9:00;784;0;0;20;15; 
27/3/2024;10:00;618;0;0;20;15; 
27/3/2024;11:00;14863;0;4080;20;16; 
27/3/2024;12:00;20205;0;0;20;16; 
27/3/2024;13:00;43526;2871;9707;20;17; 
27/3/2024;14:00;27221;5161;7973;20;17; 
27/3/2024;15:00;27704;8841;13758;20;19; 
27/3/2024;16:00;32409;5054;7816;20;19; 
27/3/2024;15:00;24056;9691;17004;21;19; 
27/3/2024;16:00;28477;7797;13947;21;20; 
27/3/2024;17:00;5832;5471;11219;21;23; 
27/3/2024;18:00;2089;0;0;21;22; 
27/3/2024;19:00;544;0;0;21;19; 
27/3/2024;20:00;456;0;0;20;17; 
27/3/2024;21:00;524;0;0;20;16; 
27/3/2024;22:00;595;0;0;20;15; 
27/3/2024;23:00;635;0;0;20;14; 
28/3/2024;2:00;586;0;0;20;13; 
28/3/2024;3:00;667;0;0;20;12; 
28/3/2024;4:00;594;0;0;20;12; 
28/3/2024;5:00;617;0;0;20;12; 
28/3/2024;6:00;624;0;0;20;11; 
28/3/2024;7:00;812;0;0;20;11; 
28/3/2024;8:00;831;0;0;20;12; 
28/3/2024;9:00;905;0;0;20;12; 
28/3/2024;10:00;1078;0;0;20;13; 
28/3/2024;11:00;16161;0;0;20;14; 
28/3/2024;12:00;16873;2166;9455;20;16; 
28/3/2024;13:00;28027;3141;7578;20;16; 
28/3/2024;14:00;23097;11103;7578;20;16; 
28/3/2024;15:00;29254;17833;7578;20;16; 
28/3/2024;16:00;24666;20597;7578;21;16; 